Airfield :
LOGIN :

Register | Disclaimer

   EN    FR    IT 

 










Legend :    VFR   Marginal VFR   IFR   Intensive IFR   Very Intensive IFR
Visi :
Ceiling :
>= 8 km
>= 3000ft
5 to 8 km
1000 to 3000 ft
1500m to 5 km
500 to 1000 ft
800 to 1500m
200 to 500 ft
< 800m
< 200 ft
Symbols :   Thunderstorms  Fog  Heavy snow  Heavy precipitations  Wind > 20 kt
SIGMETs :     Misc.  Thunderstorms  Icing  Turbulence  Mountain Waves  Volcanic Ashes






- Airport Elevation : 113 ft


EKRS - Ringsted

CURRENT METAR :
  • 122020Z AUTO 30010KT 200V020 9999 NCD 13/07 Q1015

EXPIRED METARs :
  • 121950Z AUTO 31011KT 240V000 9999 FEW045/// 13/07 Q1015
  • 121920Z AUTO 31012KT 260V020 9999 FEW041/// 14/06 Q1015
  • 121850Z AUTO VRB13G24KT 9999 NCD 14/06 Q1014
  • 121820Z AUTO 31014G25KT 250V020 9999 FEW045/// SCT054/// 15/06 Q1014
  • 121750Z AUTO 31013G29KT 260V350 9999 SCT047/// 15/07 Q1014

TAF N/A



MET'MAP, your aeronautical weather chart ! - Copyright ORBIFLY December 2007 - Disclaimer

ORBIFLY MET'MAP TEAM :

Programming & Development : Alexandra Zaïnal
Concept & original design : Baudouin d'Aumeries
Assistance for programming : Marc-Olivier Méhu
Technical & hardware support : Manuel Goepfert

Contact : metmap@orbifly.com




SOURCES & CREDITS :

   NOAA